Location: Neuvy Saint Sepulchre
(46.5953°N, 1.8122°E)
Time: 09:29:03
(UTC+02:00)

ISS - Pass Details

Date: 10 July 2021
Orbit: 419 x 421 km, 51.6° (Epoch: 04 August)

Event Time Altitude Azimuth Distance (km) Brightness Sun altitude
Exits shadow 02:04:59 69° 335° (NNW) 454 -3.5 -21.2°
Maximum altitude 02:04:59 69° 337° (NNW) 454 -3.5 -21.2°
Drops below altitude 10° 02:08:21 10° 61° (ENE) 1,505 -0.6 -21.1°
Sets 02:10:28 0° 64° (ENE) 2,371 0.5 -21.1°
